Location: Seattle
(47.6064°N, 122.3308°W)
Time: 15:31:48
(UTC-07:00)

ISS - Pass Details

Date: 11 December 2015
Orbit: 411 x 421 km, 51.6° (Epoch: 17 October)

Event Time Altitude Azimuth Distance (km) Brightness Sun altitude
Rises 17:15:20 0° 291° (WNW) 2,363 0.8 -9.3°
Reaches altitude 10° 17:17:27 10° 296° (WNW) 1,502 -0.4 -9.6°
Maximum altitude 17:20:46 55° 15° (NNE) 514 -3.6 -10.1°
Enters shadow 17:23:36 14° 93° (E) 1,308 -1.8 -10.6°
Drops below altitude 10° 17:24:07 10° 95° (E) 1,512 - -10.7°
Sets 17:26:15 0° 100° (E) 2,381 - -11.0°
